Powrót do katalogu

COSMOS 2251 DEB

AktywnyLEO
NORAD 37988·DEBRIS·🇷🇺 Russia

Wystrzelony Jun 16, 1993 z Plesetsk Cosmodrome

Loading…

Następne Przeloty (najbliższe 24 godziny)

TLE

ŚwieżeSource: Space-Track

Epoka: Sep 12, 2026, 20:43 UTC

1 37988U 93036BQP 26255.86372578  .00002610  00000-0  41242-3 0  9997
2 37988  74.0600 212.8786 0062071 182.1771 177.9141 14.71585930274254

Śledź COSMOS 2251 DEB w czasie rzeczywistym z AllMySat

Download on the App Store